This is the latest recevied weather packets stored in our database for station/object LU4EGV-13. If no packets are shown the sender has not sent any weather packets the latest 10 day(s).
| Time | Temp. | Humidity | Pressure | Rain* | Wind** | Luminosity | Snow |
|---|---|---|---|---|---|---|---|
| 1777810652 | 9.44° C | 83% | 1020.9 hPa | 0 mm | - | - | - |
| 1777810047 | 7.78° C | 84% | 1021 hPa | 0 mm | - | - | - |
| 1777809442 | 6.67° C | 86% | 1021 hPa | 0 mm | - | - | - |
| 1777808835 | 6.11° C | 86% | 1021 hPa | 0 mm | - | - | - |
| 1777808227 | 5.56° C | 86% | 1021.1 hPa | 0 mm | - | - | - |
| 1777807622 | 5° C | 87% | 1021.3 hPa | 0 mm | - | - | - |
| 1777807016 | 4.44° C | 86% | 1021.4 hPa | 0 mm | - | - | - |
| 1777806410 | 4.44° C | 85% | 1021.3 hPa | 0 mm | - | - | - |
| 1777805803 | 3.89° C | 85% | 1021.3 hPa | 0 mm | - | - | - |
| 1777805197 | 3.89° C | 85% | 1021.3 hPa | 0 mm | - | - | - |
| 1777804591 | 3.89° C | 85% | 1021.3 hPa | 0 mm | - | - | - |
| 1777803986 | 4.44° C | 84% | 1021.3 hPa | 0 mm | - | - | - |
| 1777803381 | 3.89° C | 84% | 1021.4 hPa | 0 mm | - | - | - |
| 1777802772 | 4.44° C | 84% | 1021.4 hPa | 0 mm | - | - | - |
| 1777802168 | 4.44° C | 83% | 1021.8 hPa | 0 mm | - | - | - |
| 1777801568 | 4.44° C | 84% | 1021.6 hPa | 0 mm | - | - | - |
| 1777800953 | 5° C | 83% | 1021.8 hPa | 0 mm | - | - | - |
| 1777800348 | 5.56° C | 84% | 1021.9 hPa | 0 mm | - | - | - |
| 1777799741 | 5.56° C | 85% | 1022.1 hPa | 0 mm | - | - | - |
| 1777799135 | 5.56° C | 85% | 1022 hPa | 0 mm | - | - | - |
| 1777798530 | 5° C | 85% | 1022.3 hPa | 0 mm | - | - | - |
| 1777797923 | 5° C | 85% | 1022.3 hPa | 0 mm | - | - | - |
| 1777797318 | 5° C | 85% | 1022.4 hPa | 0 mm | - | - | - |
| 1777796710 | 5° C | 84% | 1022.3 hPa | 0 mm | - | - | - |
| 1777796104 | 4.44° C | 84% | 1022.1 hPa | 0 mm | - | - | - |
* Rain latest hour (hover to see other rain measurements)
** Current wind speed in m/s (hover to see current wind gust speed)